Theta_e
349 350 350 349 348 348 348 348 348 348 349 349 347 346 347 347 348 348 347 347 348 349 349 349 348 348 347 345 345 344 345 347 347 347 346 346 347 347 348 347 347 348 347 348 347 346 343 340 338 334 332 330 328 326 327 331 333 333 333 333 331 329 328 331 332 332 333 332 328 327 328 327 330 335 333 330 332 332 331 330 328 328 328 329 330
350 350 349 348 347 347 348 348 348 349 350 349 349 349 349 349 349 348 346 346 347 348 348 348 347 346 345 344 344 344 345 347 347 346 346 346 347 347 347 346 345 346 347 346 345 343 341 338 336 331 328 327 324 324 328 332 332 330 329 329 329 329 329 332 334 334 333 331 328 328 327 328 332 334 332 331 333 331 330 329 329 329 328 328 328
350 349 347 347 347 347 347 347 348 349 350 350 349 350 350 350 350 349 347 347 347 348 349 349 347 346 346 345 345 346 347 348 347 347 346 346 347 346 344 342 342 344 344 343 342 341 340 337 334 329 327 326 324 325 328 330 329 327 327 328 329 329 331 334 334 334 332 329 330 330 328 327 331 333 331 331 332 330 329 330 330 329 328 328 328
348 348 346 346 347 347 346 346 346 348 349 350 350 350 350 351 350 349 347 348 349 349 350 349 347 347 347 346 347 348 349 349 349 347 346 346 346 344 340 338 339 339 340 340 340 340 338 335 331 329 328 326 324 324 327 327 327 328 329 329 329 330 332 333 332 331 330 329 331 332 330 328 329 330 329 329 330 330 329 330 328 326 325 325 325
347 347 346 346 346 346 345 345 346 348 349 349 349 350 351 351 350 348 347 349 349 349 349 348 346 346 347 347 348 350 349 349 348 347 345 345 343 339 336 336 336 335 336 337 338 338 336 333 331 331 329 326 324 324 325 326 327 328 328 328 329 331 332 331 331 329 329 329 330 331 331 330 330 330 329 328 328 328 327 326 324 323 322 322 322
345 345 345 346 346 344 345 345 346 347 348 348 349 350 351 351 348 346 346 348 347 346 349 348 345 345 347 347 348 348 347 346 345 344 343 341 338 335 335 335 334 334 335 335 335 335 333 333 334 332 328 326 326 326 325 326 326 327 327 327 328 330 330 330 329 328 327 327 328 331 331 330 330 329 328 327 326 326 325 323 322 322 321 321 321
345 345 345 345 345 344 344 346 346 346 348 348 349 350 351 350 347 345 346 347 344 344 348 348 345 346 347 348 347 346 345 344 343 343 341 339 337 336 335 334 333 334 335 336 335 335 335 335 334 331 328 328 327 326 327 327 327 327 326 326 328 329 329 329 328 328 328 327 328 331 330 329 328 327 326 325 324 324 324 322 321 320 320 320 319
346 346 345 345 344 344 345 346 346 347 348 348 349 350 351 350 346 343 345 346 343 343 346 347 345 347 348 348 348 346 345 345 344 343 341 340 338 337 335 335 334 334 336 337 337 336 336 336 333 331 330 328 327 327 328 327 327 327 327 327 328 328 328 328 328 329 330 330 330 330 329 327 326 325 324 324 324 323 322 321 319 317 318 318 318
347 346 346 346 345 345 346 346 347 347 348 349 350 350 350 349 346 344 344 345 344 343 345 346 346 348 349 349 348 347 346 347 347 345 343 341 339 337 336 336 335 335 335 336 337 337 335 334 333 332 330 329 328 328 328 328 328 328 328 328 328 328 328 328 328 329 330 330 329 327 326 325 324 324 324 324 324 322 320 318 317 316 316 316 317
348 347 347 346 346 346 346 347 347 348 349 349 350 351 349 349 347 344 343 344 344 343 344 345 346 348 350 350 349 348 348 349 349 347 345 342 340 339 337 336 336 335 335 336 336 334 333 333 333 331 330 329 328 327 327 328 328 327 328 328 327 327 326 327 328 328 329 329 327 325 324 323 323 323 323 324 323 321 319 317 317 317 317 317 317
348 348 348 347 347 348 346 347 348 348 349 349 350 351 350 349 348 344 342 344 343 343 344 344 344 347 349 350 348 348 349 349 348 347 344 342 340 339 338 337 336 335 335 335 333 332 332 332 332 331 330 329 326 325 326 326 326 327 327 326 325 325 325 326 327 328 328 328 327 325 324 323 323 323 323 323 322 321 319 318 318 318 318 318 319
348 349 349 349 349 349 348 348 348 349 349 350 350 351 350 350 348 344 341 342 342 342 343 342 343 345 347 347 346 346 347 347 346 344 341 339 337 337 337 337 336 335 335 333 332 330 330 330 330 330 330 327 323 323 324 324 325 326 325 325 324 324 325 326 327 328 329 327 326 324 323 323 323 322 322 322 321 320 319 319 319 319 319 319 319
348 349 349 350 350 350 349 348 349 350 349 349 350 350 350 349 348 343 339 339 340 341 341 340 340 342 343 344 343 343 344 344 343 342 338 334 333 333 334 334 334 334 332 331 329 326 325 325 325 326 326 323 321 322 323 323 324 325 324 323 324 325 326 326 326 327 327 327 326 324 323 323 323 322 322 322 321 320 320 320 320 320 320 320 319
348 348 349 350 350 350 349 348 349 349 349 349 350 350 349 348 345 341 336 335 338 339 339 338 338 337 338 339 340 341 341 341 341 340 334 328 325 326 328 330 331 331 328 326 325 323 321 319 319 321 323 320 319 320 321 322 323 324 323 323 326 328 330 329 329 328 328 327 326 326 325 324 324 323 323 322 322 321 321 321 321 321 321 321 320
347 348 349 349 350 350 349 348 349 349 349 349 349 351 349 345 342 339 334 332 334 336 338 337 335 334 334 336 337 339 339 340 339 336 331 325 321 321 324 327 329 327 324 322 323 322 319 317 317 319 320 319 318 319 320 321 323 323 323 324 326 329 331 330 329 329 329 329 328 327 327 326 326 325 324 324 324 323 322 322 323 323 322 322 322
347 348 349 349 350 350 350 349 349 349 350 349 349 351 348 343 340 337 332 330 332 333 335 335 334 333 332 333 334 337 339 341 341 336 331 325 319 318 319 322 323 322 322 322 322 320 317 316 316 316 317 317 317 318 319 321 321 322 322 322 324 328 329 329 328 328 329 329 328 328 328 328 328 327 327 326 327 326 324 324 324 324 324 323 323
346 347 348 349 350 350 350 349 349 350 349 349 349 350 348 342 340 337 332 330 331 331 332 333 332 331 331 331 332 335 338 339 338 335 332 325 320 318 317 318 319 319 321 322 321 319 316 315 315 315 315 316 317 318 319 320 321 321 321 321 322 325 326 326 326 326 327 328 328 328 329 329 329 329 328 328 329 329 328 327 327 327 326 324 324
346 348 347 349 350 350 350 349 348 349 348 348 348 349 349 344 341 339 334 330 329 329 330 331 330 330 331 331 330 332 334 336 335 332 329 323 318 317 317 317 317 318 319 320 319 317 315 315 315 315 316 317 317 318 319 320 321 321 321 321 321 322 322 324 324 325 326 327 326 327 328 328 328 329 328 328 330 331 330 329 329 329 328 327 326
347 348 348 349 350 350 350 349 349 348 348 348 348 349 351 348 343 341 337 332 330 330 330 331 329 328 329 327 326 329 331 334 335 333 328 322 317 317 316 316 317 318 318 318 317 315 314 314 315 316 317 318 319 321 322 323 323 321 320 319 320 320 321 322 323 324 324 325 325 325 326 327 328 329 329 330 331 332 331 329 329 330 330 329 328
347 348 349 350 350 350 350 348 348 348 347 347 348 349 351 350 346 343 341 337 333 331 330 330 329 327 327 327 325 326 329 332 333 332 328 321 317 316 316 316 317 317 317 316 315 315 314 315 316 317 319 321 323 325 325 325 324 322 320 320 320 320 320 321 322 323 323 324 324 325 326 327 328 330 330 331 331 330 329 328 328 329 329 329 328
346 348 349 350 350 350 350 348 348 348 348 348 349 349 350 351 349 346 343 340 335 331 329 329 328 327 327 328 326 326 329 330 330 330 329 321 316 315 316 317 317 316 315 315 315 315 315 317 319 320 322 324 325 326 326 325 324 323 323 323 323 322 323 323 324 324 324 324 325 326 326 325 326 328 329 329 329 329 328 327 327 328 328 328 328
345 347 348 349 351 350 350 350 349 351 350 349 350 350 350 352 351 348 345 341 336 330 328 328 329 329 328 329 329 328 329 327 326 328 328 321 316 316 316 316 316 315 315 316 316 316 318 320 322 323 325 326 326 326 325 324 324 324 325 325 324 325 325 326 325 325 325 325 326 326 324 322 322 323 324 325 326 326 326 326 326 327 327 326 326
344 346 347 348 350 350 350 351 351 351 350 349 349 350 350 351 351 350 347 343 337 331 328 329 329 330 330 329 331 332 331 327 323 323 323 319 316 316 316 316 316 316 315 316 318 319 321 323 324 325 327 327 326 325 325 324 324 324 324 324 325 325 325 325 325 325 325 326 326 325 322 321 321 321 321 321 322 322 323 323 323 324 324 323 324
344 344 347 348 349 351 351 351 351 351 351 350 350 351 351 351 351 352 349 345 341 335 330 329 330 330 331 332 332 332 332 330 326 323 320 319 317 315 315 317 316 315 316 317 319 320 323 325 325 326 327 326 325 323 322 323 323 323 324 324 325 324 324 323 324 325 325 325 323 322 322 322 322 323 323 322 323 322 322 321 321 322 322 322 323
344 344 346 348 349 351 351 351 352 351 351 351 351 351 352 352 353 353 351 348 345 341 335 330 329 330 331 334 333 333 334 331 328 328 323 318 317 315 316 319 318 316 316 317 318 320 324 326 326 326 327 326 325 323 322 322 322 323 325 325 325 323 322 323 325 325 323 322 322 323 324 324 324 324 324 324 324 324 324 323 323 323 323 324 325
344 344 345 346 348 349 349 350 351 351 351 351 350 352 353 354 354 354 353 352 349 347 341 332 330 329 330 333 333 335 335 330 333 337 330 320 318 317 318 321 320 317 316 318 319 321 324 325 325 326 326 327 326 325 323 323 322 323 325 326 324 322 322 324 324 323 321 322 323 324 325 325 325 325 325 325 326 326 325 325 324 324 324 325 325
343 344 344 346 346 347 348 349 349 350 350 350 351 352 353 354 355 354 355 355 353 351 347 339 334 330 329 332 332 334 336 338 345 346 333 321 319 319 320 320 318 317 317 318 319 321 323 324 324 325 326 326 325 324 323 321 321 322 325 325 323 321 323 324 323 322 322 323 324 325 326 326 326 326 326 326 326 326 326 326 326 325 324 323 323
344 343 343 345 345 345 347 347 348 348 348 350 350 352 353 354 354 355 356 356 355 354 351 347 342 337 332 330 332 338 343 345 347 342 329 321 321 320 320 319 318 317 317 319 320 321 323 324 324 325 326 325 323 322 321 320 320 322 324 323 321 321 322 322 322 322 323 324 325 326 327 326 326 326 326 327 327 327 327 327 326 326 324 322 321
343 343 343 344 343 344 345 345 346 347 347 350 350 352 354 354 355 356 357 357 356 355 354 353 351 346 340 336 339 345 347 347 344 336 326 322 322 322 321 321 321 320 318 319 321 322 324 324 324 325 326 323 321 320 320 320 320 322 322 321 321 321 321 321 322 323 324 325 326 327 327 326 326 326 326 325 325 324 324 325 325 325 324 322 321
343 343 343 344 343 343 343 344 346 346 347 348 349 351 353 353 355 356 357 357 356 356 355 355 354 353 350 346 344 343 345 347 344 336 328 324 323 325 323 320 321 322 320 321 322 323 325 324 324 325 324 321 320 320 321 320 321 322 322 322 322 323 322 323 323 324 325 325 326 326 326 326 326 325 324 322 321 320 320 321 323 324 323 322 321
343 343 343 343 343 344 343 344 345 344 345 347 348 350 351 353 355 356 356 357 356 357 356 356 356 355 352 349 346 344 345 347 345 340 332 326 325 325 322 321 324 323 321 322 323 323 323 322 323 324 322 320 320 321 321 321 322 323 324 324 324 324 325 325 325 325 325 326 326 326 326 326 326 325 322 320 318 318 319 320 322 323 323 322 321
343 343 344 343 343 343 343 343 343 343 345 346 347 349 350 351 354 354 356 357 357 357 357 356 356 355 353 351 349 347 347 345 345 344 337 329 325 323 321 324 329 329 325 323 323 323 322 322 322 321 320 319 319 321 323 324 323 324 325 326 327 327 327 327 326 327 327 326 326 326 326 326 326 325 323 320 318 318 319 320 321 322 322 321 321
343 342 343 343 343 342 341 342 343 343 345 346 347 348 348 349 351 353 355 356 357 357 357 356 355 354 354 352 350 349 348 344 342 342 337 329 325 322 322 325 326 326 327 325 323 322 322 321 321 320 319 319 320 321 324 325 325 326 327 329 329 330 330 330 329 329 328 327 327 326 326 326 325 325 323 320 319 319 319 319 320 321 321 321 321
342 342 343 343 343 342 343 344 344 344 345 345 345 344 344 346 349 351 353 354 356 356 356 356 355 354 354 352 351 349 347 342 338 335 331 327 322 321 325 324 319 320 325 325 322 322 321 320 320 320 320 321 322 323 325 327 328 329 330 331 331 332 332 332 332 330 328 328 327 326 325 325 325 325 322 319 319 319 319 319 319 319 319 320 321
342 343 342 343 343 344 344 343 341 340 338 337 336 336 338 342 345 348 350 352 354 355 356 356 355 354 354 352 351 348 343 340 337 334 330 326 322 323 324 322 319 320 321 321 321 321 321 320 320 321 321 323 324 325 327 328 330 332 333 333 332 331 330 331 332 331 328 327 326 325 325 325 325 324 321 319 319 319 318 317 317 316 316 317 319
341 341 341 342 342 341 340 336 333 332 330 329 330 330 332 335 340 345 348 351 353 354 354 355 354 354 354 352 350 348 345 341 338 334 331 326 324 325 324 322 322 321 319 320 322 322 322 321 321 322 323 324 325 327 328 330 331 333 333 331 330 330 331 331 332 330 328 326 325 325 325 325 324 323 321 320 320 319 318 317 315 314 315 316 318
341 341 339 338 337 336 335 333 331 331 330 331 332 331 332 334 337 342 346 348 351 352 352 354 353 353 353 352 351 349 348 345 339 334 332 329 327 325 324 323 323 322 320 321 322 322 324 324 322 323 324 325 326 327 329 331 331 332 331 330 329 330 331 331 329 327 326 325 325 325 325 324 323 322 321 321 320 319 318 316 315 314 315 317 319
339 338 336 335 335 334 335 335 335 334 333 333 334 333 333 334 334 336 338 340 342 346 349 351 352 352 352 351 350 349 348 346 342 336 331 329 328 325 323 322 323 322 321 323 324 328 331 330 325 324 325 326 327 328 329 330 330 331 330 329 329 330 331 329 327 326 325 325 325 325 325 324 323 322 321 321 319 318 317 315 314 315 317 318 319
336 336 336 335 336 335 336 336 335 334 333 332 332 330 330 330 330 331 332 333 336 342 347 349 350 350 349 348 348 348 346 344 342 337 332 329 329 327 324 323 323 323 324 327 330 334 336 335 331 329 328 327 327 327 328 329 329 330 329 328 330 330 329 328 326 326 326 325 325 325 324 323 322 321 320 319 319 318 316 314 315 317 319 319 320
337 338 337 337 337 337 337 336 334 333 332 331 331 331 330 329 330 332 332 333 337 342 345 348 348 348 347 346 346 346 345 342 339 334 332 331 330 327 325 323 324 326 329 330 333 336 338 338 337 335 334 333 332 332 331 330 330 330 328 328 330 329 327 326 325 325 325 325 324 324 323 322 321 320 320 319 319 317 314 313 316 319 319 320 320
338 339 338 338 339 337 336 336 335 334 333 332 333 333 331 331 333 334 335 337 340 343 344 347 348 346 345 345 345 344 344 341 336 333 331 330 328 325 325 327 330 332 333 333 334 337 338 338 337 336 334 334 335 334 332 330 329 328 328 328 329 327 326 325 324 323 323 323 323 323 322 321 320 320 320 319 317 313 312 314 317 319 320 320 320
338 338 338 338 339 339 338 337 337 336 335 335 335 335 334 335 336 336 338 339 340 342 344 345 346 345 344 344 343 343 343 339 336 332 330 328 326 325 327 330 332 334 335 335 337 338 337 334 333 332 333 334 334 332 330 329 328 327 328 328 326 324 323 322 321 321 322 322 322 321 321 320 320 320 320 317 313 311 312 316 318 319 319 319 319
335 336 337 337 338 339 339 339 339 339 338 338 337 337 337 338 338 338 339 340 341 343 344 344 344 344 344 343 342 342 341 339 334 329 327 326 325 326 328 330 331 333 334 335 336 336 335 333 332 333 334 334 332 330 329 328 326 326 325 324 321 320 320 319 319 320 321 321 321 320 320 321 320 320 318 314 310 310 313 316 318 318 318 318 318
332 332 331 331 332 333 335 337 339 340 340 340 340 340 340 340 340 341 341 342 343 343 343 343 343 343 342 342 341 341 339 336 330 326 326 326 325 327 328 330 331 332 332 333 333 334 333 334 335 334 333 331 330 329 328 326 324 323 321 319 318 318 318 318 318 319 320 320 320 320 321 321 320 319 316 311 309 311 314 317 318 318 318 317 318
330 330 330 329 329 330 331 332 335 338 342 343 342 342 341 341 342 343 343 343 344 344 344 343 342 342 341 341 340 339 336 331 326 327 328 328 329 331 331 331 331 330 330 331 331 332 333 335 334 332 330 329 329 328 326 323 321 319 317 317 318 318 318 318 319 319 319 319 320 321 321 320 319 317 312 309 310 314 316 317 318 317 317 317 317
328 329 330 330 330 331 331 330 334 339 343 344 344 344 344 344 344 343 343 344 344 344 343 342 341 340 340 339 338 338 335 329 327 330 333 333 334 334 333 331 329 328 330 330 329 331 334 335 332 330 329 329 328 326 323 321 318 317 317 317 318 318 318 318 319 319 319 320 320 320 320 319 317 313 310 311 314 316 317 317 316 316 316 316 315
326 327 328 328 328 331 331 330 333 337 338 339 340 342 343 344 343 341 341 343 343 343 342 341 340 340 338 337 337 336 335 333 332 332 332 331 331 331 330 329 328 328 328 327 327 332 334 331 328 328 329 328 326 323 321 319 317 317 317 317 318 318 318 318 318 318 319 319 319 319 319 316 313 310 311 314 316 316 316 316 315 315 315 315 314
327 327 326 326 326 327 328 326 326 328 329 330 334 338 340 342 343 341 340 342 342 342 341 340 339 338 337 337 336 335 335 335 332 330 328 328 328 326 325 325 326 324 321 323 328 332 330 327 327 327 327 325 323 321 319 318 317 317 317 317 317 318 317 317 318 318 319 319 319 318 316 312 310 312 314 316 316 316 315 315 314 314 314 313 313
329 328 327 326 325 325 327 326 325 326 328 330 335 339 342 343 341 339 339 341 341 340 340 338 338 337 336 336 335 335 335 332 328 326 328 328 326 324 324 324 324 322 321 324 329 330 327 326 326 325 324 323 322 320 319 318 318 318 318 318 318 317 317 317 318 318 319 319 318 315 312 310 311 314 316 316 315 314 314 313 313 313 313 312 312
331 331 330 329 327 328 328 328 328 330 333 336 338 341 342 340 337 336 337 338 338 337 336 335 335 334 333 332 333 333 332 329 325 325 328 327 324 323 324 323 321 321 324 327 328 327 326 326 326 324 323 322 321 320 319 318 318 318 318 318 318 317 318 318 318 319 319 318 316 313 310 310 312 314 314 314 313 312 312 312 312 312 311 310 309
333 334 334 334 333 333 333 332 332 334 336 338 339 340 340 338 336 335 335 334 333 332 332 332 332 330 330 330 330 329 329 326 325 326 326 325 324 324 323 321 321 324 327 327 326 326 326 325 325 324 323 322 321 321 320 318 318 318 318 318 318 317 318 318 318 318 318 316 313 311 310 311 312 312 312 312 311 311 311 311 310 309 308 307 306
Wind_Speed
33 32 31 30 29 27 27 27 26 26 25 24 23 23 23 22 22 21 19 18 18 18 19 19 20 20 20 18 18 17 16 16 15 14 12 10 10 11 11 12 12 14 15 15 15 13 11 9 8 7 9 12 13 12 11 11 12 12 12 11 10 10 9 9 9 10 10 8 5 5 3 0 3 5 2 5 4 3 4 7 8 9 9 8 7
33 33 33 31 30 28 28 29 29 28 27 27 25 24 23 22 22 21 19 19 18 18 18 18 18 18 17 16 15 15 15 15 14 12 11 11 12 12 12 11 11 11 12 12 11 10 9 8 7 9 10 11 11 11 10 10 10 10 10 9 9 9 8 7 8 9 8 7 8 7 4 3 5 4 3 4 2 3 5 7 8 8 9 9 8
33 34 34 33 32 30 30 31 31 30 28 27 26 25 23 23 23 21 20 20 19 18 19 18 16 16 15 15 13 13 13 13 13 12 12 14 14 12 11 10 9 9 9 9 9 10 9 9 9 10 11 11 10 8 8 9 9 8 8 9 9 9 7 5 6 7 6 6 8 7 5 3 4 4 3 2 1 3 4 5 5 6 7 7 8
35 35 36 35 34 33 33 33 32 31 30 30 28 27 25 25 23 22 21 21 19 19 19 17 16 15 15 15 14 13 13 12 13 14 15 15 14 12 11 11 10 10 9 9 9 10 9 9 11 11 11 10 8 7 7 7 7 7 7 8 8 8 6 4 5 5 5 6 6 6 5 4 2 2 4 3 3 4 3 3 4 5 5 5 7
37 37 37 37 37 36 35 34 33 33 33 32 30 29 27 25 24 23 22 22 20 20 20 18 18 17 17 16 16 16 15 15 16 16 16 15 14 13 12 12 11 10 9 9 9 10 10 11 12 11 11 10 7 6 7 7 7 8 7 8 8 7 7 6 6 6 5 6 6 5 3 2 3 5 4 3 2 3 2 4 4 5 5 5 5
39 39 39 39 38 37 36 35 35 35 34 32 30 28 27 25 24 23 23 22 21 21 21 20 20 19 19 19 18 18 18 18 17 17 17 15 13 12 12 13 12 11 11 11 11 12 12 12 12 11 11 8 6 6 7 8 8 8 8 8 8 8 8 7 7 6 6 7 6 4 3 2 3 5 3 1 1 1 3 4 4 5 5 5 5
40 40 40 40 40 39 38 37 37 36 34 31 29 28 27 26 25 24 24 23 22 22 23 23 22 21 20 20 19 19 19 18 17 17 16 15 14 13 13 13 13 13 12 13 12 12 12 12 12 11 9 8 7 8 8 8 8 7 7 8 8 8 8 8 7 5 5 6 5 4 3 3 3 3 4 4 3 2 3 3 4 6 5 5 6
41 41 41 42 41 41 40 38 37 36 34 32 31 29 28 26 26 25 25 24 23 24 25 25 24 23 22 21 20 20 19 17 17 17 17 16 16 15 14 13 13 13 13 13 13 13 13 13 12 10 9 8 7 7 7 7 6 6 6 6 7 8 7 7 6 5 4 4 4 3 2 2 3 3 4 4 5 5 4 3 3 4 5 6 8
42 42 43 43 43 42 40 38 36 35 34 34 32 29 28 26 26 26 26 26 25 25 26 26 25 24 23 22 22 21 19 18 18 19 18 17 17 16 15 14 14 14 13 13 13 14 13 13 11 10 8 7 7 6 6 6 6 6 5 5 6 6 6 5 5 3 2 3 3 3 3 3 3 4 4 4 5 6 6 6 7 6 5 7 9
41 43 44 44 44 42 40 38 36 35 34 34 32 30 28 27 27 28 28 28 27 27 28 27 26 25 25 24 24 22 20 19 20 21 20 18 17 17 16 15 14 14 14 14 14 14 13 12 11 9 8 8 7 6 6 6 6 6 5 5 5 5 4 4 4 3 3 4 3 3 3 4 5 5 5 5 5 6 8 10 11 11 11 11 11
41 42 44 44 43 42 40 39 37 36 35 35 34 32 30 29 28 29 30 29 29 29 29 29 28 27 27 26 25 23 21 21 21 21 20 19 18 17 16 15 14 14 14 14 14 12 11 11 10 9 8 8 7 6 6 6 6 6 6 6 5 4 3 3 4 4 5 5 4 4 4 5 6 6 6 7 8 8 9 11 12 14 15 15 14
41 42 43 43 42 42 42 41 39 38 37 37 36 34 32 30 30 31 31 32 32 31 31 31 30 29 28 27 26 24 22 21 20 19 18 18 17 17 16 16 15 15 15 15 13 12 11 11 10 9 9 8 8 7 7 7 6 6 6 6 5 3 2 3 3 4 5 6 5 5 5 6 7 7 7 8 9 10 11 12 13 14 16 16 17
42 42 43 43 43 44 44 44 42 40 39 39 37 35 34 32 32 33 34 34 34 33 33 33 32 31 29 28 26 25 23 21 19 18 17 16 16 17 17 18 17 17 16 15 13 12 11 11 10 9 9 8 8 7 8 7 7 7 6 5 4 3 3 3 3 4 5 6 7 7 7 8 8 9 9 9 10 11 12 13 13 14 15 17 19
44 44 44 44 45 46 46 45 44 43 41 40 38 36 35 34 35 35 35 35 35 36 35 35 34 32 29 28 26 25 23 20 19 18 17 16 16 17 18 18 18 18 17 15 14 11 10 10 9 8 8 8 8 8 9 8 8 8 7 6 5 4 4 4 4 4 5 6 8 8 9 10 11 11 11 11 12 12 13 14 14 15 16 17 19
44 45 46 46 47 47 48 47 46 44 43 41 40 38 37 36 37 37 37 37 38 38 38 37 35 32 30 28 27 25 22 20 19 18 17 16 16 17 18 17 17 17 16 15 13 11 11 10 9 9 9 9 9 10 10 10 10 9 9 9 8 7 7 7 7 7 7 8 8 10 11 12 13 13 14 14 14 14 15 15 15 17 18 19 19
43 45 46 46 47 47 48 48 47 46 44 43 42 41 40 39 39 39 39 39 40 40 39 38 36 33 31 29 27 25 23 21 20 19 17 17 17 17 17 17 17 16 16 15 14 13 12 11 10 10 10 11 11 11 11 11 11 11 12 12 11 10 10 10 10 11 11 11 11 12 13 14 14 15 16 16 16 16 16 16 16 17 19 20 21
44 46 47 48 47 48 48 48 48 46 45 44 44 43 42 42 41 41 41 41 42 42 41 39 37 35 33 31 29 26 24 23 21 19 18 17 18 18 18 18 18 17 17 16 15 15 14 13 12 11 11 12 13 12 11 12 13 13 13 13 14 13 13 13 13 13 13 13 13 13 14 14 15 16 17 17 17 18 17 17 17 18 19 21 22
44 46 48 48 49 49 49 49 48 46 45 44 44 44 44 43 43 43 43 43 44 44 43 41 39 37 35 32 30 28 25 24 22 20 18 19 20 20 20 20 19 19 19 18 17 17 15 15 14 13 13 13 12 11 10 11 12 13 13 14 14 15 15 15 15 14 13 13 13 14 14 14 15 16 17 19 20 20 18 18 18 19 20 22 23
41 44 46 47 48 49 49 49 48 46 45 44 44 44 45 45 44 44 44 44 45 45 44 42 40 39 36 33 31 29 27 25 23 21 20 21 22 22 23 22 21 21 21 20 19 17 17 17 16 14 14 12 11 10 10 11 12 12 12 12 13 14 15 15 14 14 13 14 14 14 14 15 16 17 17 20 22 20 18 17 18 19 21 23 23
42 44 46 47 48 50 51 50 49 47 45 44 45 45 46 46 46 46 45 45 45 46 45 44 43 41 38 35 33 32 29 27 25 22 22 23 24 25 25 24 22 22 21 20 19 18 17 18 17 15 13 11 10 11 12 12 12 12 11 11 11 12 13 13 13 13 14 14 15 15 16 16 17 17 18 19 20 19 17 17 18 19 20 22 23
43 44 46 47 48 50 51 51 50 48 46 46 47 47 47 47 47 47 47 46 47 48 47 47 46 44 42 40 37 35 31 29 27 25 24 24 26 27 26 23 22 21 21 20 19 18 18 18 17 15 12 11 11 12 12 12 12 12 11 11 10 10 12 12 13 14 14 14 15 16 16 16 16 17 17 17 18 17 18 18 18 19 19 20 22
43 44 45 46 47 48 49 50 50 49 49 48 48 49 49 49 49 49 49 49 49 50 50 50 49 48 46 44 41 37 34 32 29 27 25 26 28 28 25 23 22 22 20 19 19 18 19 18 16 14 12 12 12 12 12 13 12 12 11 10 10 11 12 14 14 14 14 14 15 16 15 14 15 16 16 17 18 18 19 20 19 19 20 20 21
42 43 44 44 46 47 47 49 50 50 51 50 49 50 50 50 50 50 51 51 51 51 52 52 51 51 49 46 43 40 37 34 32 31 29 28 29 27 24 23 23 21 20 19 19 19 19 18 16 14 13 13 13 13 13 13 12 11 10 9 10 12 14 14 14 14 13 13 13 14 13 13 14 16 16 16 17 18 19 20 20 20 20 20 21
40 41 42 42 43 44 46 48 49 50 51 51 51 52 52 52 52 52 53 52 52 52 53 54 54 53 51 49 46 43 40 37 35 34 31 29 30 27 24 22 22 21 21 20 20 20 20 18 16 15 14 13 13 13 13 13 12 10 10 10 10 12 13 13 13 13 12 11 12 13 13 14 15 17 17 17 16 17 18 19 20 19 20 21 21
38 39 40 40 41 43 45 47 49 50 50 51 51 52 52 53 53 53 53 53 53 53 54 55 56 55 53 51 49 46 44 40 38 36 33 31 30 27 23 20 22 23 22 21 22 22 20 19 17 16 15 14 13 13 13 12 11 10 10 10 10 11 12 13 13 12 11 10 12 14 15 16 17 18 19 19 19 18 18 19 20 20 21 23 23
38 39 39 40 41 42 44 45 47 47 48 49 50 51 51 52 52 53 53 53 53 53 54 55 56 57 56 54 52 51 47 42 39 36 32 30 28 26 23 20 22 24 24 23 24 23 21 20 18 17 15 14 14 13 13 12 12 11 11 10 10 12 13 14 13 12 11 12 13 15 17 18 19 19 20 20 21 21 21 21 22 22 23 24 25
38 38 39 40 40 41 42 43 44 44 44 45 46 48 49 50 50 51 51 51 51 51 53 55 56 57 58 58 56 54 49 43 39 33 28 27 27 26 24 21 22 24 25 24 24 23 21 20 18 17 15 14 14 14 14 14 13 12 11 11 11 13 14 15 14 13 13 14 16 17 19 19 20 21 21 21 22 23 23 24 25 24 24 25 27
36 37 39 39 40 41 41 41 41 41 42 43 44 45 46 47 48 48 49 49 50 51 53 55 56 57 59 60 59 55 49 44 40 34 30 30 30 26 23 22 24 26 26 25 25 23 21 20 18 17 15 14 15 15 15 15 14 13 11 11 12 14 16 16 16 15 16 17 18 19 20 21 21 21 22 23 24 24 25 26 27 25 24 25 26
37 38 39 39 39 40 39 39 40 40 41 41 42 43 44 45 46 46 47 48 50 52 53 54 55 57 58 59 55 49 47 47 44 38 35 36 33 26 23 23 25 26 26 26 25 23 22 21 19 17 16 16 16 16 15 15 14 13 11 11 12 14 16 17 17 18 18 19 20 21 22 22 23 23 23 25 25 26 26 27 27 26 25 25 25
39 39 39 40 39 39 38 39 39 39 40 40 41 42 42 43 44 44 45 47 49 50 51 51 53 54 54 51 43 37 41 48 48 44 41 39 34 27 24 25 26 26 27 27 25 24 23 22 20 18 17 17 17 16 14 14 14 12 12 12 13 15 16 18 19 19 20 21 22 24 25 25 25 25 24 24 25 25 25 26 26 25 25 25 25
40 39 39 39 39 38 38 38 39 39 39 39 39 39 39 40 41 42 43 45 46 47 48 49 51 51 49 47 44 42 46 52 53 50 47 42 36 29 25 26 26 26 27 27 26 26 25 23 21 20 19 20 19 16 15 14 14 13 13 14 15 17 18 20 20 20 21 22 23 25 26 27 27 26 24 22 23 24 24 24 24 25 25 26 26
39 38 39 38 38 39 39 39 39 38 37 36 35 35 36 37 38 39 41 41 42 43 45 47 47 46 46 48 51 52 53 55 55 53 49 43 38 33 29 27 27 27 27 28 28 28 26 23 22 21 21 21 20 17 16 15 15 15 15 17 18 20 21 22 23 23 23 24 25 27 27 28 27 26 24 22 22 22 23 23 24 25 26 27 28
38 38 38 38 37 37 38 38 36 35 34 32 31 31 31 32 34 36 37 38 39 41 43 43 43 43 45 49 51 52 54 54 52 52 50 43 38 36 33 30 30 28 27 28 29 28 26 23 22 22 22 21 20 18 17 16 15 15 16 18 21 22 24 25 25 26 25 26 27 28 29 28 27 25 24 22 22 22 23 24 25 26 27 28 29
35 35 35 34 33 33 33 32 28 25 22 20 20 20 21 24 28 31 33 35 36 38 39 40 40 41 44 46 48 49 48 44 44 47 45 39 36 36 33 31 31 29 28 29 30 29 26 24 23 22 21 20 19 18 17 16 15 16 18 21 23 25 26 27 28 28 26 26 27 28 29 29 26 25 23 22 22 23 24 24 25 26 28 28 29
31 31 31 29 27 26 23 17 11 7 4 4 5 6 10 14 19 23 26 29 32 34 36 37 39 40 42 44 43 41 37 35 40 43 39 37 39 39 33 30 29 28 27 29 30 28 25 23 23 22 21 20 19 17 17 16 17 19 21 23 25 26 26 28 29 27 24 24 26 28 29 29 27 25 22 22 23 24 24 25 26 27 28 29 29
24 23 20 17 15 13 12 12 11 9 6 3 2 2 5 8 11 16 20 23 27 30 33 35 37 39 41 41 40 40 38 37 39 41 42 44 46 41 34 30 28 27 28 29 30 29 26 23 22 22 22 21 20 18 18 18 19 21 22 23 24 25 25 25 26 23 22 23 26 27 28 28 26 24 23 23 25 25 25 26 27 28 28 28 29
11 10 11 14 16 16 17 15 12 9 6 3 2 2 4 6 9 12 15 18 21 24 27 30 33 36 38 39 39 41 42 41 39 42 47 49 44 36 32 30 28 27 27 28 29 28 26 24 22 23 24 23 22 20 20 21 22 22 23 23 24 24 23 22 21 20 21 24 26 27 28 27 25 24 24 25 25 24 25 26 27 27 27 28 28
18 19 19 20 20 19 17 15 11 8 5 5 5 5 4 4 7 8 10 13 15 18 22 26 29 33 35 36 38 39 41 40 40 46 51 45 34 27 28 28 28 26 25 26 30 30 29 27 24 24 24 24 23 23 23 24 24 24 24 24 24 23 22 21 20 21 23 25 26 27 28 26 25 25 25 25 24 24 25 26 27 27 27 27 27
22 20 19 19 19 17 16 14 10 6 6 5 4 4 3 3 4 5 7 9 12 16 20 23 26 29 30 32 33 34 35 37 41 48 50 41 30 26 28 29 29 29 28 31 34 32 31 29 27 27 28 27 27 27 26 26 27 28 26 24 22 21 21 20 21 22 24 26 27 28 27 26 26 25 24 24 24 25 25 25 25 25 26 27 26
18 17 19 19 18 16 15 13 8 5 6 6 5 6 6 6 6 7 8 10 13 16 18 20 24 25 26 28 29 30 32 35 37 34 32 32 30 29 30 30 31 32 32 33 34 33 32 30 28 28 28 29 30 28 26 27 28 28 26 23 21 20 20 21 23 24 25 26 27 27 27 26 25 23 23 23 24 25 24 24 24 24 25 26 25
15 15 16 16 16 14 12 9 6 6 8 8 7 9 11 11 11 11 11 11 13 15 16 19 21 21 23 25 27 29 32 33 27 18 19 27 32 32 32 30 31 30 30 31 31 30 30 30 31 30 29 30 31 28 26 25 25 24 22 21 20 20 22 24 24 25 25 26 26 26 25 24 23 22 23 24 24 24 23 22 23 23 24 24 25
15 13 11 10 9 7 5 5 5 6 8 8 8 11 13 14 13 11 10 10 11 13 15 16 18 18 19 22 25 28 30 28 21 16 20 29 33 33 31 28 27 26 28 29 29 27 26 27 31 32 31 30 30 26 22 20 19 18 18 18 20 22 23 24 24 24 25 25 24 23 22 22 22 22 23 23 23 22 21 21 22 22 23 24 25
17 14 11 8 5 2 1 3 4 5 7 8 10 12 14 14 12 10 9 9 10 12 12 13 14 14 15 18 22 26 27 24 19 19 24 30 31 28 24 22 22 24 25 24 24 25 25 27 30 30 27 27 25 19 16 15 14 15 16 18 20 22 22 22 22 23 23 22 21 20 20 21 21 22 23 22 21 21 20 20 20 22 23 24 23
18 16 14 11 9 8 7 7 7 7 8 10 12 13 13 12 10 9 9 10 10 10 9 9 10 11 12 15 18 21 23 23 21 21 23 24 23 21 18 18 19 20 21 21 24 24 24 27 30 26 21 20 19 15 13 13 13 14 16 18 19 20 19 20 20 20 20 19 19 19 19 20 21 22 22 21 20 19 19 19 20 22 22 22 21
18 16 13 11 9 8 8 8 8 8 8 9 11 11 11 10 9 8 9 10 11 9 6 6 8 9 10 14 17 19 21 23 22 18 15 14 14 15 14 14 13 12 15 18 21 23 25 27 26 21 15 13 14 14 13 12 12 14 15 17 17 18 18 18 18 18 17 18 18 18 19 20 20 21 20 19 18 18 18 20 21 22 21 20 20
16 15 12 10 9 8 8 10 11 11 10 9 9 9 10 10 9 9 11 12 10 8 5 6 8 10 13 16 17 19 22 24 21 15 11 11 11 11 11 11 9 9 10 13 15 21 26 25 22 17 13 12 13 12 11 11 13 14 15 16 16 16 16 16 16 16 16 16 17 17 18 19 19 19 18 17 17 17 18 20 21 20 20 19 21
11 11 9 7 7 7 8 10 12 12 11 12 12 10 11 12 11 11 12 11 9 7 6 7 9 13 16 17 17 18 22 23 19 14 11 12 12 12 11 9 8 9 11 14 17 22 22 20 17 15 13 12 12 11 11 12 13 14 15 15 16 15 15 15 15 15 15 16 16 17 18 18 17 16 16 15 16 17 18 19 20 20 20 21 23
9 9 6 2 1 2 3 5 9 10 9 11 13 12 13 14 12 10 10 8 6 6 7 8 11 14 15 15 17 20 21 19 16 16 17 17 16 15 12 8 8 13 15 16 19 20 18 16 15 14 13 13 12 12 11 12 13 14 14 15 15 15 15 15 14 14 14 15 16 17 16 16 15 14 14 14 16 17 18 18 19 19 20 21 23
3 3 3 3 3 2 3 5 8 8 7 9 12 13 14 13 9 7 6 5 5 7 9 10 12 13 13 15 18 20 20 19 20 22 21 19 19 16 12 12 14 16 15 15 17 18 15 13 13 13 13 13 12 11 11 12 14 14 14 15 15 15 15 14 13 13 14 15 15 15 14 14 13 13 13 15 16 16 17 17 18 19 20 21 21
3 3 2 3 4 2 2 3 6 5 7 11 13 14 13 9 5 4 3 3 5 6 8 10 11 11 11 13 17 20 22 24 25 21 18 19 20 17 12 12 13 12 11 14 18 17 13 13 14 15 15 14 12 11 12 13 14 15 14 14 14 14 14 13 13 13 14 14 13 13 13 13 13 14 15 15 16 16 16 15 16 17 18 19 20
5 4 3 5 5 3 2 1 1 3 8 11 13 13 11 7 3 1 1 2 4 4 7 8 9 10 10 12 15 20 24 25 23 19 18 19 18 13 11 10 10 10 13 17 19 18 15 15 16 16 15 13 12 12 12 14 15 14 14 13 13 13 13 13 12 13 13 13 12 12 12 13 14 15 15 16 15 14 14 14 14 15 17 18 18
Wind_Direction
220 219 218 218 219 220 221 221 222 222 222 222 220 219 219 220 222 221 218 217 219 218 218 220 222 227 232 235 240 244 248 253 259 264 268 271 271 272 273 272 271 265 259 256 252 248 238 227 235 261 275 276 280 283 278 271 272 279 286 291 297 302 305 304 298 300 309 321 352 20 31 25 161 145 45 357 350 341 339 340 339 342 343 343 344
221 221 220 220 220 221 223 223 224 224 223 223 222 221 219 220 222 223 222 221 222 220 219 221 223 226 231 235 242 246 249 253 256 262 267 266 264 267 268 268 266 254 246 243 236 226 218 221 247 275 289 295 297 288 273 267 271 279 291 301 308 313 314 305 296 300 316 332 343 4 52 105 162 153 19 357 350 345 345 346 345 343 340 336 333
221 221 221 221 221 222 223 224 225 226 226 225 224 223 220 220 222 224 224 224 225 223 222 224 228 231 234 239 244 247 250 250 250 250 251 255 260 262 257 254 255 246 238 232 222 218 223 240 270 293 306 310 306 291 272 267 273 286 301 312 316 320 323 305 288 297 316 328 336 351 19 61 157 157 39 34 33 355 344 353 6 1 349 341 334
220 221 222 221 221 222 223 224 225 226 227 227 225 223 221 221 223 223 222 224 226 225 223 224 228 232 234 235 236 239 241 240 240 241 243 249 253 254 252 254 256 251 243 233 224 228 241 265 287 300 305 305 302 293 284 280 286 296 306 315 320 325 327 308 285 292 306 317 333 347 351 11 83 66 47 71 55 31 20 20 25 12 0 348 338
220 221 222 220 220 221 222 224 225 226 227 227 226 224 223 224 225 223 221 224 226 224 222 223 223 226 227 226 225 226 227 229 233 236 239 242 246 251 255 258 259 256 250 243 241 249 261 275 285 292 296 297 294 290 289 289 293 298 302 310 314 316 312 298 287 290 298 303 315 331 336 0 11 6 38 88 60 44 34 26 24 9 6 0 349
222 222 222 221 221 221 223 224 225 227 227 227 227 226 226 227 225 222 222 224 225 222 221 222 222 221 221 219 218 220 223 229 234 238 242 245 249 254 254 256 258 255 251 248 250 256 263 270 275 282 286 277 263 261 265 269 275 281 287 294 296 294 292 292 292 292 292 293 294 294 285 289 333 350 9 31 25 43 18 19 23 13 12 12 4
222 223 223 223 223 222 223 224 225 227 227 226 227 227 228 228 224 221 221 223 223 220 219 221 222 221 219 219 219 223 228 232 237 242 245 247 249 250 248 251 252 249 246 244 247 252 257 261 265 270 267 249 241 242 244 252 256 259 263 270 277 278 280 289 300 298 288 283 277 266 261 274 306 321 325 338 351 8 2 6 20 16 6 0 2
221 222 222 223 224 224 223 224 225 226 226 226 226 226 226 225 223 220 221 223 222 220 220 220 221 220 219 219 221 226 230 234 239 243 246 246 246 245 245 247 248 247 245 243 245 248 252 255 257 258 253 243 241 240 243 250 250 252 251 254 265 270 275 285 294 300 288 265 251 241 246 265 279 291 308 327 334 341 346 341 352 9 5 353 353
222 222 223 224 225 225 224 224 224 225 226 227 226 225 224 222 221 221 222 223 222 221 220 221 221 221 220 221 224 227 230 232 237 242 244 245 245 245 245 246 245 243 242 242 244 247 249 250 251 251 249 248 247 241 242 245 249 253 251 251 257 264 274 281 282 286 264 232 218 221 247 264 275 289 302 316 326 333 341 344 341 343 355 357 351
222 223 225 226 227 226 226 225 225 226 226 227 227 225 223 221 220 222 222 223 223 222 222 221 220 220 221 222 225 227 229 232 235 239 241 243 243 244 244 243 241 240 238 238 242 245 246 244 245 248 249 249 248 244 240 239 245 247 249 255 256 256 257 259 265 261 236 220 217 241 269 282 292 302 311 317 324 329 335 343 342 337 339 347 347
221 222 224 227 228 227 226 226 226 226 226 227 226 225 222 220 220 222 223 223 223 222 221 221 219 220 221 222 224 225 228 233 236 237 240 242 242 243 243 241 239 238 236 239 242 244 243 242 244 247 248 252 254 250 248 245 243 242 246 251 257 261 242 233 251 253 242 236 241 265 283 291 298 304 312 314 319 325 330 335 339 334 332 336 338
219 220 222 224 225 225 225 225 226 226 225 225 225 224 222 221 221 221 222 223 222 222 221 219 219 219 220 221 223 223 227 233 235 239 243 245 245 244 243 239 236 236 237 241 243 243 243 243 246 249 250 257 261 257 257 255 247 238 237 238 243 254 243 238 248 248 252 254 258 267 274 282 289 296 305 309 315 320 323 327 331 329 327 328 330
217 218 220 220 220 222 223 224 224 224 224 224 224 224 222 220 220 220 221 221 221 221 219 218 218 218 219 220 221 222 227 232 235 241 245 247 247 246 244 243 240 240 242 244 245 247 249 248 250 250 248 254 257 256 256 252 242 231 223 222 226 237 250 260 262 254 257 263 269 273 276 283 289 294 300 304 309 312 313 317 322 321 321 323 326
215 216 218 218 219 220 223 223 223 223 223 223 223 223 221 220 219 219 219 220 220 220 218 218 218 218 218 219 221 223 227 231 236 240 243 245 247 248 249 248 246 248 250 248 247 250 253 251 247 239 236 245 251 251 251 245 238 229 219 215 219 233 251 262 267 265 267 271 275 278 282 287 290 293 295 297 301 303 304 309 314 314 314 317 320
213 215 216 218 219 220 222 223 224 223 222 222 221 222 221 219 218 218 217 217 218 218 218 218 217 217 218 220 223 226 228 232 238 242 243 245 246 248 249 248 249 252 251 246 246 251 254 247 234 227 231 240 245 244 243 241 238 230 225 225 228 238 251 260 266 271 274 277 278 281 283 284 287 290 292 294 297 298 300 303 307 309 309 311 315
212 214 215 217 219 220 221 222 224 224 223 223 221 221 220 218 217 216 215 214 216 217 218 218 217 217 218 220 224 227 229 234 238 241 244 244 245 246 247 248 249 248 244 241 245 249 248 238 228 227 231 236 237 237 238 239 240 235 232 234 236 244 253 260 267 272 278 283 286 288 287 285 285 285 287 291 293 295 298 300 303 306 306 307 311
211 212 214 216 217 219 221 222 224 224 224 223 221 220 220 218 217 216 215 214 216 216 217 218 217 217 218 220 224 226 228 232 236 239 243 244 243 243 243 245 243 241 239 240 245 245 240 234 231 229 229 229 229 230 235 240 242 243 242 242 243 248 255 261 268 274 282 286 288 290 290 288 286 283 284 287 289 291 293 293 297 302 302 303 307
211 213 214 215 215 217 219 221 224 225 225 224 222 221 220 220 220 218 216 214 214 216 216 217 217 218 218 220 223 226 227 230 233 237 241 242 240 238 238 237 236 236 237 237 239 239 235 231 230 229 227 227 227 232 241 246 248 250 250 251 251 253 258 265 271 277 281 283 285 289 291 291 289 285 286 287 287 288 291 294 294 295 296 297 300
210 212 213 214 214 216 218 220 223 225 226 227 225 224 224 224 223 223 221 218 218 219 218 218 218 219 219 218 221 224 225 228 231 233 238 239 236 234 233 232 232 233 234 234 234 234 231 227 226 227 228 229 236 247 255 258 258 258 258 258 258 258 262 266 270 273 274 277 284 290 292 293 291 289 289 289 288 289 294 300 299 296 296 296 296
209 211 213 213 213 215 218 221 223 225 227 227 227 228 227 226 226 226 225 223 223 222 220 219 219 219 219 217 219 221 223 226 228 230 235 237 235 233 229 227 228 230 232 233 233 231 228 225 222 223 227 235 246 254 260 261 258 258 261 263 262 261 263 265 266 268 271 277 285 289 291 293 293 289 287 289 293 294 297 301 302 299 298 297 297
210 211 213 213 213 215 218 221 224 225 226 227 227 228 229 229 228 227 227 226 225 224 222 220 220 219 219 219 219 220 220 223 226 229 233 235 234 230 226 224 226 229 231 231 231 229 227 223 220 220 226 238 248 254 258 256 251 253 259 262 263 262 264 266 268 270 275 281 286 288 291 296 297 293 290 291 295 298 298 300 301 299 298 299 298
211 213 214 213 214 215 217 219 221 223 225 227 228 229 230 230 229 229 228 227 226 224 223 222 221 221 221 221 221 221 220 221 222 226 229 233 233 228 222 223 225 227 229 228 227 226 223 219 216 219 228 237 245 250 251 249 247 251 256 259 262 264 267 271 273 276 280 282 284 287 295 303 303 300 300 299 299 300 300 299 299 298 297 298 298
213 214 214 215 215 216 217 219 221 223 226 227 229 230 230 230 230 229 229 228 227 226 225 224 224 223 223 223 223 223 221 220 221 222 224 229 231 225 219 222 226 227 227 225 222 220 218 216 215 221 229 235 243 246 245 244 244 248 254 259 264 269 273 276 277 279 283 284 285 290 298 305 305 302 303 304 304 304 302 300 300 298 296 296 297
214 214 215 216 216 216 217 218 221 223 225 227 229 230 231 231 231 230 230 230 229 229 228 227 226 226 225 225 224 224 223 221 221 220 220 225 228 222 217 223 228 229 227 222 216 214 213 215 217 222 228 235 242 244 243 241 243 250 259 266 271 275 277 277 277 280 284 285 286 292 299 303 302 301 302 303 303 303 302 302 301 299 297 297 298
212 213 215 216 216 217 218 220 222 224 226 227 229 231 232 232 231 231 232 232 231 231 230 230 229 229 228 227 227 227 225 222 221 220 218 224 227 219 213 224 233 231 227 220 213 211 212 216 219 223 229 235 241 244 244 244 248 256 264 272 278 279 274 270 271 274 277 280 286 295 302 302 300 299 300 301 301 301 301 300 299 298 297 297 297
212 213 215 217 218 220 221 223 224 226 228 230 231 233 233 233 232 233 233 233 232 232 232 232 232 231 231 231 230 230 228 224 223 222 220 225 228 219 214 225 234 231 227 220 213 211 214 217 221 225 230 235 240 244 247 249 252 256 262 272 278 275 268 264 264 266 271 278 288 297 300 298 295 296 297 297 297 297 296 296 296 297 296 295 294
214 214 216 217 220 223 225 226 227 229 231 233 234 235 235 235 235 234 234 233 232 233 233 234 234 234 234 234 232 232 230 227 225 224 224 229 231 227 224 229 234 232 228 222 216 213 215 219 222 226 230 235 241 245 248 250 251 251 256 266 270 269 265 262 263 269 276 283 288 293 295 294 293 292 293 293 293 291 292 293 295 296 297 295 293
216 215 216 217 221 226 227 228 230 232 233 235 235 236 236 236 236 235 233 233 233 234 234 235 236 236 236 237 236 232 227 225 223 221 224 228 227 226 229 231 232 233 229 224 219 216 217 221 223 226 231 235 241 246 249 250 248 246 251 259 264 265 264 264 268 275 281 285 287 290 292 292 290 288 288 288 287 286 287 289 291 294 295 294 293
217 216 216 220 224 226 229 231 233 233 234 235 236 236 236 237 237 236 235 234 235 236 236 236 237 238 239 240 236 227 221 224 222 217 219 223 219 218 225 229 231 232 230 226 222 220 221 224 225 227 231 235 240 245 247 246 243 242 246 253 260 264 266 267 271 277 282 287 290 291 292 290 288 286 286 285 285 284 284 285 287 289 291 291 291
218 218 218 221 224 227 230 233 233 234 236 237 237 238 238 239 239 238 237 237 238 238 238 238 238 240 240 238 231 218 218 224 222 216 218 218 213 214 222 227 230 232 231 227 223 223 224 224 225 228 231 234 239 242 242 239 237 239 244 251 258 263 267 270 273 277 284 289 291 292 293 292 291 290 289 289 288 287 286 285 285 287 289 290 289
219 219 220 222 224 227 230 232 234 237 238 239 240 241 242 243 242 241 241 241 240 240 240 240 241 241 238 234 231 227 227 227 221 216 216 215 212 215 220 223 225 229 231 230 226 226 226 225 226 229 232 235 237 238 235 232 234 239 247 253 259 264 268 273 276 281 287 291 292 292 293 294 293 293 293 293 292 292 290 288 288 289 289 289 287
218 220 221 223 224 226 230 233 236 239 241 243 246 247 248 250 248 247 246 243 242 243 243 242 242 240 236 236 237 236 235 230 221 214 210 208 209 212 213 217 224 229 232 232 230 229 228 226 228 230 233 235 237 237 235 233 234 240 248 257 263 267 270 274 278 282 287 291 294 295 295 294 293 294 295 295 294 294 293 291 289 288 288 288 287
219 222 224 225 226 228 232 235 239 244 248 253 256 258 261 263 258 253 250 248 247 246 245 243 241 240 238 239 240 241 239 232 220 210 205 203 206 208 205 209 217 224 231 234 234 232 230 228 230 232 234 237 239 240 239 240 244 250 259 266 269 271 272 274 277 279 284 290 296 298 297 295 293 292 294 297 296 295 294 292 290 288 287 286 286
220 224 226 228 229 231 236 241 246 252 257 263 267 271 276 274 266 260 256 254 251 249 245 243 243 242 242 242 243 244 240 226 211 206 204 201 204 207 205 204 208 216 228 234 234 233 231 230 232 234 237 240 241 241 243 248 256 263 269 273 275 276 276 275 274 274 280 289 296 297 296 294 292 291 293 296 296 297 297 295 294 292 290 288 286
219 224 229 232 233 234 235 234 230 224 229 260 281 290 288 279 271 267 263 259 256 251 247 245 246 245 245 246 245 241 234 218 207 208 207 200 201 205 202 199 205 212 219 226 232 233 232 233 235 237 239 241 241 241 244 252 261 268 274 277 278 278 278 278 279 280 285 291 294 294 293 292 292 291 293 296 298 299 299 299 299 296 294 292 287
224 228 229 222 211 200 179 159 144 127 114 94 60 351 311 292 281 273 267 263 258 254 250 249 249 249 249 248 245 242 237 226 213 209 207 202 204 206 199 195 205 212 212 222 233 235 233 237 240 240 240 240 241 243 249 258 265 271 276 280 282 281 279 280 285 289 291 291 291 291 291 291 291 291 294 297 298 298 299 301 301 300 298 294 289
200 178 156 143 144 144 143 144 137 123 116 123 160 251 291 292 288 283 277 272 266 261 258 257 256 257 254 251 249 246 243 235 219 207 204 204 204 203 193 191 202 208 207 218 231 234 237 242 243 244 245 245 247 250 255 261 266 270 275 280 284 283 278 277 282 286 288 288 289 289 289 289 290 292 296 298 297 299 302 303 302 301 298 294 290
133 130 130 134 141 145 148 148 141 137 155 177 195 220 242 265 286 294 291 288 283 276 270 265 264 264 260 257 255 250 246 241 225 209 204 203 200 194 187 187 197 203 207 221 234 242 248 248 245 246 249 250 251 252 254 258 263 270 276 281 282 278 274 276 281 285 287 287 288 287 287 288 291 294 297 298 300 303 305 305 302 299 296 294 295
127 130 137 142 147 151 153 154 151 155 174 186 206 223 230 249 279 294 293 289 285 279 273 270 269 267 263 260 257 251 246 239 224 211 205 202 200 197 191 191 202 213 222 233 241 249 253 251 250 252 252 253 255 256 257 263 271 277 279 279 277 275 275 281 285 285 285 285 285 284 285 288 292 296 297 300 304 307 306 304 301 297 296 297 299
135 142 149 151 155 158 158 159 159 168 183 199 222 226 227 237 244 254 266 272 274 276 277 275 272 267 262 256 250 247 240 227 216 208 200 195 198 198 194 201 218 228 234 240 245 252 256 257 260 262 260 259 259 260 265 274 279 279 274 272 274 277 280 283 282 281 281 282 282 283 285 289 293 296 299 302 306 307 306 303 300 297 298 301 303
124 133 142 148 154 156 159 170 187 200 204 213 229 232 233 235 236 243 255 265 274 278 278 276 270 263 257 250 243 241 236 222 209 196 186 190 195 193 196 214 232 238 243 248 252 258 264 266 267 269 269 266 263 264 270 276 276 270 266 269 275 278 279 279 277 277 278 279 280 281 285 290 294 296 300 304 306 306 305 303 300 300 303 307 310
96 100 112 128 146 163 182 206 220 222 227 238 250 251 245 240 241 249 257 267 275 277 277 278 272 261 252 246 239 234 229 219 208 198 193 192 192 194 206 227 244 250 253 254 257 264 269 267 265 268 270 268 267 267 267 266 263 260 262 268 274 274 275 275 274 274 276 277 280 283 287 291 294 297 301 304 306 306 305 302 302 305 311 315 315
82 81 80 81 77 57 339 298 291 283 277 277 274 265 251 242 243 250 259 268 272 274 279 280 272 261 253 244 234 226 220 214 205 196 191 189 193 204 222 244 258 261 259 260 265 269 270 267 266 267 268 268 268 265 257 252 253 256 263 269 271 272 272 271 270 271 273 277 281 285 288 290 293 297 302 304 306 305 304 304 308 313 318 319 318
74 68 62 54 43 32 21 2 340 322 304 291 284 273 256 246 249 259 269 274 272 273 279 275 262 255 248 235 223 215 213 208 196 189 190 195 206 222 239 258 268 264 259 265 272 272 271 269 266 263 261 260 257 251 246 249 256 263 269 272 272 272 270 267 266 269 273 278 282 285 287 290 294 298 302 304 306 307 309 311 315 318 320 320 319
70 64 54 46 39 31 21 7 348 330 313 299 291 280 264 257 264 273 277 276 275 275 273 257 244 232 217 210 207 208 207 197 187 188 201 215 229 240 250 265 274 264 255 261 266 266 268 267 263 262 257 242 234 235 243 255 267 273 276 276 274 272 268 266 267 271 276 279 280 282 286 291 296 300 303 307 311 313 314 315 317 320 321 319 319
63 61 58 53 45 35 25 10 354 343 335 323 307 290 277 272 274 281 282 280 279 277 257 231 219 201 193 198 205 208 204 195 192 204 222 229 232 235 237 244 254 256 257 261 265 268 268 265 261 260 248 228 225 237 252 268 278 280 279 278 275 273 270 268 271 275 277 279 281 284 289 294 299 304 307 312 315 314 315 315 317 321 321 318 318
33 37 44 50 45 39 35 22 6 357 348 329 313 300 289 279 275 281 284 280 274 264 240 216 205 200 201 205 205 203 203 206 212 219 215 205 200 197 199 213 241 261 260 258 262 263 261 257 254 247 234 230 240 253 265 278 284 283 283 281 278 276 274 274 276 276 278 281 285 290 295 298 304 309 312 313 314 313 314 316 318 320 319 317 318
3 1 356 345 18 42 23 0 352 348 332 309 298 288 275 266 265 274 280 274 260 240 220 209 207 207 204 198 195 199 208 212 209 201 195 187 176 171 174 195 250 269 265 258 258 256 252 251 248 239 235 243 251 258 272 286 291 291 289 285 281 279 278 277 277 277 280 285 290 295 299 303 307 310 309 309 311 313 314 316 317 317 317 317 318
330 329 321 305 309 339 344 349 355 346 310 281 273 263 254 252 263 282 282 260 231 211 205 205 205 202 193 185 189 199 206 201 190 189 193 187 178 178 192 216 242 258 259 253 252 254 255 252 241 235 241 248 250 261 280 293 296 296 292 286 282 281 279 277 278 279 283 288 293 296 300 304 306 307 306 307 310 313 315 316 316 318 318 319 319
264 222 226 295 315 343 7 10 9 338 283 263 253 246 245 251 276 313 304 248 212 200 202 204 201 196 192 189 191 195 197 193 190 192 196 192 191 201 221 236 243 247 241 240 243 245 243 237 233 237 246 248 252 269 285 294 298 297 291 286 283 282 281 280 280 283 286 290 293 297 301 304 305 305 305 308 312 315 316 317 318 320 320 320 321
282 266 264 276 276 260 237 270 308 267 255 251 246 243 246 250 257 338 307 207 190 189 197 199 197 193 192 193 193 193 193 193 192 194 198 200 207 225 246 249 242 233 228 233 234 231 228 231 236 244 249 251 260 275 287 296 300 297 291 288 286 285 286 285 285 288 291 293 298 301 303 303 303 305 308 313 318 319 319 319 320 322 324 324 324